Regional Weather Roundup
Issued by NWS Memphis, TN

Home | Current Version | Previous Version | Text Only | Print | Product List | Glossary On
Versions: 1 2 3 4 5 6 7 8 9 10 11 12 13 14 15 16 17 18 19 20 21 22 23 24 25 26 27 28 29 30 31 32 33 34 35 36 37 38 39 40 41 42 43 44 45 46 47 48 49 50
000
ASUS44 KMEG 251110
RWRMEG
MEMPHIS CWA HOURLY WEATHER ROUNDUP
NATIONAL WEATHER SERVICE MEMPHIS TN
600 AM CDT MON JUL 25 2016

...WEST TENNESSEE...

CITY           SKY/WX    TMP DP  RH WIND       PRES   REMARKS
MEMPHIS INTL   PTCLDY    79  75  87 S6        30.00R
NWS MEMPHIS      N/A     76 N/A N/A MISG        N/A
JACKSON        CLEAR     74  74 100 CALM      30.02R
LEXINGTON      CLEAR     72  72 100 SE3       30.02S
DYERSBURG      CLEAR     75  73  94 MISG      30.00R
UNION CITY     CLEAR     75  75 100 CALM      29.99R
PARIS          CLEAR     73  72  94 CALM      30.02R


...EASTERN ARKANSAS...

CITY           SKY/WX    TMP DP  RH WIND       PRES   REMARKS
JONESBORO      CLEAR     76  74  93 CALM      29.99R
WEST MEMPHIS   MOCLDY    76  75  97 S5        29.99R
BATESVILLE     CLEAR     73  72  94 CALM      29.99R
NEWPORT        MOCLDY    78  77  97 CALM      30.00R
WALNUT RIDGE   PTCLDY    77  73  88 E3        29.98R
BLYTHEVILLE    PTCLDY    78  76  93 S3        29.99R
SEARCY         PTCLDY    73  72  96 CALM      30.01R
STUTTGART      MOCLDY    77  72  83 W5        30.00R
PINE BLUFF     CLEAR     75  73  93 W3        30.00R
MONTICELLO     PTCLDY    75  72  90 NW3       30.00R


...NORTH MISSISSIPPI...

CITY           SKY/WX    TMP DP  RH WIND       PRES   REMARKS
TUPELO         CLEAR     75  73  93 SE3       30.02S FOG
OXFORD         CLEAR     73  72  94 CALM      30.04R FOG
BATESVILLE     CLEAR     74  72  95 CALM      30.02S FOG
TUNICA         CLEAR     73  73 100 SE7       30.00S FOG
CLARKSDALE     CLEAR     75  75 100 CALM      30.01R FOG
CORINTH        CLEAR     73  72  94 SE3       30.03R
GREENWOOD      CLEAR     75  72  90 CALM      30.00R
COLUMBUS       CLEAR     74  74 100 CALM      30.03R
GOLDEN TRIANGL CLEAR     75  70  83 CALM      30.02R


...SOUTHEAST MISSOURI...

CITY           SKY/WX    TMP DP  RH WIND       PRES   REMARKS
KENNETT        PTCLDY    77  77 100 CALM      29.97S FOG
WEST PLAINS    CLOUDY    76  73  91 NE5       30.04R FOG
POPLAR BLUFF   CLEAR     77  75  93 CALM      29.97S
CAPE GIRARDEAU PTCLDY    76  74  93 SE3       29.98S


...NORTHWEST ALABAMA...

CITY           SKY/WX    TMP DP  RH WIND       PRES   REMARKS
MUSCLE SHOALS  CLEAR     73  71  93 CALM      30.06R


...MIDDLE TENNESSEE...

CITY           SKY/WX    TMP DP  RH WIND       PRES   REMARKS
NASHVILLE      MOCLDY    76  73  91 S5        30.04R
CLARKSVILLE    CLEAR     75  72  90 CALM      30.03R
COLUMBIA       CLEAR    N/A N/A N/A CALM      30.04R


...WESTERN KENTUCKY...

CITY           SKY/WX    TMP DP  RH WIND       PRES   REMARKS
PADUCAH        PTCLDY    77  74  90 CALM      29.99R
FORT CAMPBELL  CLEAR     76  73  89 S2        30.02R


...CENTRAL ARKANSAS...

CITY           SKY/WX    TMP DP  RH WIND       PRES   REMARKS
LITTLE ROCK    MOCLDY    76  71  85 S3        29.99R


SKY/WX REPORTED AS FAIR MEANS FEW OR NO CLOUDS BELOW
12 THOUSAND FEET.




USA.gov is the U.S. government's official web portal to all federal, state and local government web resources and services.